Location: Nirvana
(45.0297°N, 77.2628°W)
Time: 16:56:10
(UTC-05:00)

Envisat - Pass Details

Date: 29 October 2019
Orbit: 764 x 766 km, 98.1° (Epoch: 11 November)

Event Time Altitude Azimuth Distance (km) Brightness Sun altitude
Rises 19:35:15 0° 180° (S) 3,217 6.3 -17.0°
Reaches altitude 10° 19:37:37 10° 186° (S) 2,296 5.6 -17.5°
Maximum altitude 19:42:30 49° 261° (W) 984 4.0 -18.3°
Drops below altitude 10° 19:47:26 10° 336° (NNW) 2,311 5.8 -19.2°
Sets 19:49:50 0° 342° (NNW) 3,242 6.5 -19.6°
